This is the latest recevied weather packets stored in our database for station/object N5PRN. If no packets are shown the sender has not sent any weather packets the latest 10 day(s).
| Time | Temp. | Humidity | Pressure | Rain* | Wind** | Luminosity | Snow |
|---|---|---|---|---|---|---|---|
| 1778025315 | 25° C | 89% | 1008.2 hPa | 0 mm | - | 52 W/m² | - |
| 1778025011 | 25° C | 89% | 1008.2 hPa | 0 mm | - | 51 W/m² | - |
| 1778024708 | 25° C | 89% | 1008.3 hPa | 0 mm | - | 47 W/m² | - |
| 1778024405 | 25° C | 89% | 1008.2 hPa | 0 mm | - | 58 W/m² | - |
| 1778024103 | 25.56° C | 89% | 1008.3 hPa | 0 mm | - | 42 W/m² | - |
| 1778023800 | 25.56° C | 88% | 1008 hPa | 0 mm | - | 40 W/m² | - |
| 1778023498 | 25.56° C | 88% | 1008 hPa | 0 mm | - | 79 W/m² | - |
| 1778023195 | 25.56° C | 87% | 1008.2 hPa | 0 mm | - | 125 W/m² | - |
| 1778022891 | 25.56° C | 87% | 1008.4 hPa | 0 mm | - | 84 W/m² | - |
| 1778022589 | 25.56° C | 87% | 1008.3 hPa | 0 mm | - | 116 W/m² | - |
| 1778022282 | 25.56° C | 87% | 1008.3 hPa | 0 mm | - | 141 W/m² | - |
| 1778021978 | 25.56° C | 87% | 1008.3 hPa | 0 mm | - | 157 W/m² | - |
| 1778021674 | 25.56° C | 87% | 1008.2 hPa | 0 mm | - | 122 W/m² | - |
| 1778021371 | 25.56° C | 88% | 1008.4 hPa | 0 mm | - | 85 W/m² | - |
| 1778021068 | 25.56° C | 87% | 1008.5 hPa | 0 mm | - | 76 W/m² | - |
| 1778020765 | 25.56° C | 88% | 1008.4 hPa | 0 mm | - | 92 W/m² | - |
| 1778020462 | 25.56° C | 88% | 1008.5 hPa | 0 mm | - | 84 W/m² | - |
| 1778020158 | 25.56° C | 87% | 1008.4 hPa | 0 mm | - | 80 W/m² | - |
| 1778019855 | 25.56° C | 87% | 1008.2 hPa | 0 mm | - | 95 W/m² | - |
| 1778019551 | 25.56° C | 86% | 1008.3 hPa | 0 mm | - | 120 W/m² | - |
| 1778019248 | 25.56° C | 87% | 1008.5 hPa | 0 mm | - | 150 W/m² | - |
| 1778018944 | 26.11° C | 86% | 1008.1 hPa | 0 mm | - | 131 W/m² | - |
| 1778018641 | 25.56° C | 86% | 1008.2 hPa | 0 mm | - | 203 W/m² | - |
| 1778018339 | 25.56° C | 86% | 1008.4 hPa | 0 mm | - | 216 W/m² | - |
| 1778018037 | 25.56° C | 86% | 1008.4 hPa | 0 mm | - | 249 W/m² | - |
* Rain latest hour (hover to see other rain measurements)
** Current wind speed in m/s (hover to see current wind gust speed)